Weather History for KEDJ - October, 2012

Change the Weather History Date:

Sunday, October 14, 2012

  Actual Average (KDAY) Record (KDAY)
Temperature  
Mean Temperature 64 °F 54 °F  
Max Temperature 71 °F 64 °F 91 °F (1899)
Min Temperature 55 °F 44 °F 27 °F (1979)
Degree Days  
Heating Degree Days 1 11  
Month to date heating degree days 127  
Since 1 July heating degree days 217  
Cooling Degree Days 0 0  
Month to date cooling degree days 10  
Year to date cooling degree days 891  
Growing Degree Days 14 (Base 50)    
Moisture  
Dew Point 58 °F    
Average Humidity 81    
Maximum Humidity 100    
Minimum Humidity 60    
Precipitation  
Precipitation 0.11 in 0.09 in 1.46 in (2003)
Month to date precipitation 1.36  
Year to date precipitation 32.97  
Snow  
Snow 0.00 in 0.00 in - ()
Month to date snowfall 0.0  
Since 1 July snowfall 0.0  
Since 1 September snowfall 0.0  
Snow Depth -    
Sea Level Pressure  
Sea Level Pressure 29.81 in    
Wind  
Wind Speed 15 mph (South)    
Max Wind Speed 30 mph    
Max Gust Speed 43 mph    
Visibility 10 miles    
Events      
T = Trace of Precipitation, MM = Missing Value Source: NWS Daily Summary

Daily Weather History Graph

Daily Weather History Graph

Search for Another Location

Airport or City:

Trip Planner

Search our weather history database for the weather conditions in past years. The results will help you decide how hot, cold, wet, or windy it might be!

Date:

Astronomy

Oct. 14, 2012 Rise Set
Actual Time 7:45 AM EDT 6:56 PM EDT
Civil Twilight 7:18 AM EDT 7:23 PM EDT
Nautical Twilight 6:46 AM EDT 7:55 PM EDT
Astronomical Twilight 6:14 AM EDT 8:26 PM EDT
Moon 6:43 AM EDT (10/14) 6:15 PM EDT (10/14)
Length of Visible Light 12h 05m
Length of Day
11h 10m
Waning Crescent, 1% of the Moon is Illuminated
Oct 14
Waning Crescent
Oct 15
New
Oct 21
First Quarter
Oct 29
Full
Nov 6
Last Quarter

Hourly Weather History & Observations

Time (EDT) Temp. Dew Point Humidity Pressure Visibility Wind Dir Wind Speed Gust Speed Precip Events Conditions
12:10 AM 64.4 °F 60.8 °F 88% 29.99 in 10.0 mi South 15.0 mph - 0.00 in   Mostly Cloudy
12:30 AM 66.2 °F 60.8 °F 83% 29.98 in 10.0 mi South 13.8 mph 19.6 mph 0.00 in   Partly Cloudy
1:10 AM 66.2 °F 60.8 °F 83% 29.98 in 10.0 mi South 12.7 mph - 0.00 in   Mostly Cloudy
1:30 AM 66.2 °F 60.8 °F 83% 29.98 in 10.0 mi South 12.7 mph 19.6 mph 0.00 in   Scattered Clouds
1:50 AM 64.4 °F 60.8 °F 88% 29.98 in 10.0 mi South 10.4 mph 18.4 mph 0.00 in   Partly Cloudy
2:10 AM 64.4 °F 60.8 °F 88% 29.97 in 10.0 mi South 10.4 mph 18.4 mph 0.00 in   Clear
2:30 AM 64.4 °F 60.8 °F 88% 29.97 in 10.0 mi South 10.4 mph - 0.00 in   Clear
2:50 AM 64.4 °F 59.0 °F 83% 29.96 in 10.0 mi South 10.4 mph - 0.00 in   Partly Cloudy
3:30 AM 62.6 °F 59.0 °F 88% 29.95 in 10.0 mi South 11.5 mph 18.4 mph 0.00 in   Partly Cloudy
3:50 AM 62.6 °F 59.0 °F 88% 29.95 in 10.0 mi South 10.4 mph - 0.00 in   Partly Cloudy
4:10 AM 62.6 °F 59.0 °F 88% 29.95 in 10.0 mi South 11.5 mph - 0.00 in   Mostly Cloudy
4:30 AM 62.6 °F 59.0 °F 88% 29.95 in 10.0 mi South 10.4 mph - 0.00 in   Partly Cloudy
4:50 AM 62.6 °F 59.0 °F 88% 29.95 in 10.0 mi South 9.2 mph - 0.00 in   Scattered Clouds
5:10 AM 62.6 °F 59.0 °F 88% 29.94 in 10.0 mi South 12.7 mph 17.3 mph 0.00 in   Scattered Clouds
5:30 AM 62.6 °F 59.0 °F 88% 29.94 in 10.0 mi South 11.5 mph - 0.00 in   Partly Cloudy
5:50 AM 62.6 °F 57.2 °F 82% 29.94 in 10.0 mi South 11.5 mph - 0.00 in   Scattered Clouds
6:10 AM 62.6 °F 57.2 °F 82% 29.94 in 10.0 mi South 11.5 mph 19.6 mph 0.00 in   Mostly Cloudy
6:30 AM 62.6 °F 57.2 °F 82% 29.94 in 10.0 mi South 12.7 mph 20.7 mph 0.00 in   Overcast
6:50 AM 62.6 °F 57.2 °F 82% 29.93 in 10.0 mi South 12.7 mph 19.6 mph 0.00 in   Overcast
7:10 AM 62.6 °F 57.2 °F 82% 29.93 in 10.0 mi South 16.1 mph 26.5 mph 0.01 in   Mostly Cloudy
7:30 AM 62.6 °F 57.2 °F 82% 29.92 in 10.0 mi South 13.8 mph 20.7 mph 0.01 in   Scattered Clouds
7:50 AM 62.6 °F 55.4 °F 77% 29.92 in 10.0 mi South 12.7 mph - 0.01 in   Scattered Clouds
8:10 AM 62.6 °F 55.4 °F 77% 29.91 in 10.0 mi South 12.7 mph - 0.00 in   Mostly Cloudy
8:30 AM 62.6 °F 55.4 °F 77% 29.90 in 10.0 mi South 15.0 mph 18.4 mph 0.00 in   Scattered Clouds
8:50 AM 62.6 °F 55.4 °F 77% 29.91 in 10.0 mi South 13.8 mph 23.0 mph 0.00 in   Scattered Clouds
9:10 AM 62.6 °F 55.4 °F 77% 29.90 in 10.0 mi South 15.0 mph 20.7 mph 0.00 in   Mostly Cloudy
9:30 AM 62.6 °F 55.4 °F 77% 29.89 in 10.0 mi South 17.3 mph 27.6 mph 0.00 in   Mostly Cloudy
9:50 AM 64.4 °F 55.4 °F 73% 29.88 in 10.0 mi South 24.2 mph 28.8 mph 0.00 in   Partly Cloudy
10:10 AM 64.4 °F 55.4 °F 73% 29.87 in 10.0 mi South 17.3 mph 31.1 mph 0.00 in   Mostly Cloudy
10:30 AM 66.2 °F 55.4 °F 68% 29.86 in 10.0 mi South 21.9 mph 29.9 mph 0.00 in   Scattered Clouds
10:50 AM 66.2 °F 55.4 °F 68% 29.84 in 10.0 mi South 24.2 mph 33.4 mph 0.00 in   Scattered Clouds
11:10 AM 66.2 °F 55.4 °F 68% 29.83 in 10.0 mi South 20.7 mph 34.5 mph 0.00 in   Partly Cloudy
11:30 AM 68.0 °F 55.4 °F 64% 29.83 in 10.0 mi South 25.3 mph 41.4 mph 0.00 in   Scattered Clouds
11:50 AM 66.2 °F 55.4 °F 68% 29.82 in 10.0 mi South 23.0 mph 38.0 mph 0.00 in   Mostly Cloudy
12:10 PM 68.0 °F 55.4 °F 64% 29.80 in 10.0 mi South 25.3 mph 41.4 mph 0.00 in   Mostly Cloudy
12:30 PM 69.8 °F 55.4 °F 60% 29.79 in 10.0 mi South 21.9 mph 42.6 mph 0.00 in   Scattered Clouds
12:50 PM 69.8 °F 57.2 °F 64% 29.79 in 10.0 mi SSW 23.0 mph 35.7 mph 0.00 in   Partly Cloudy
1:10 PM 71.6 °F 57.2 °F 60% 29.77 in 10.0 mi South 29.9 mph 41.4 mph 0.00 in   Partly Cloudy
1:30 PM 69.8 °F 57.2 °F 64% 29.77 in 10.0 mi South 25.3 mph 41.4 mph 0.00 in   Scattered Clouds
1:50 PM 69.8 °F 57.2 °F 64% 29.77 in 10.0 mi SSW 26.5 mph 38.0 mph 0.00 in   Mostly Cloudy
2:30 PM 68.0 °F 57.2 °F 68% 29.76 in 10.0 mi South 19.6 mph 29.9 mph 0.00 in   Mostly Cloudy
2:50 PM 66.2 °F 57.2 °F 73% 29.75 in 5.0 mi South 16.1 mph 27.6 mph 0.00 in   Overcast
3:10 PM 64.4 °F 60.8 °F 88% 29.74 in 5.0 mi South 17.3 mph 26.5 mph 0.00 in   Overcast
3:30 PM 64.4 °F 60.8 °F 88% 29.73 in 5.0 mi South 17.3 mph 29.9 mph 0.01 in   Mostly Cloudy
3:50 PM 64.4 °F 60.8 °F 88% 29.71 in 10.0 mi South 17.3 mph 23.0 mph 0.01 in   Scattered Clouds
4:10 PM 66.2 °F 60.8 °F 83% 29.70 in 10.0 mi South 20.7 mph 28.8 mph 0.00 in   Mostly Cloudy
4:30 PM 66.2 °F 60.8 °F 83% 29.68 in 10.0 mi South 20.7 mph 31.1 mph 0.00 in   Overcast
4:40 PM 66.2 °F 60.8 °F 83% 29.68 in 10.0 mi South 23.0 mph 36.8 mph 0.00 in   Overcast
5:10 PM 69.8 °F 60.8 °F 73% 29.68 in 10.0 mi South 25.3 mph 33.4 mph 0.00 in   Partly Cloudy
5:30 PM 68.0 °F 59.0 °F 73% 29.67 in 10.0 mi South 18.4 mph 33.4 mph 0.00 in   Scattered Clouds
5:50 PM 68.0 °F 60.8 °F 78% 29.66 in 10.0 mi South 17.3 mph 25.3 mph 0.00 in   Mostly Cloudy
6:10 PM 68.0 °F 59.0 °F 73% 29.65 in 10.0 mi South 20.7 mph 27.6 mph 0.00 in   Mostly Cloudy
6:30 PM 66.2 °F 60.8 °F 83% 29.65 in 10.0 mi South 24.2 mph 31.1 mph 0.00 in   Scattered Clouds
6:50 PM 64.4 °F 62.6 °F 94% 29.65 in 2.0 mi South 16.1 mph 29.9 mph 0.03 in   Mostly Cloudy
7:10 PM 64.4 °F 62.6 °F 94% 29.64 in 10.0 mi South 11.5 mph 19.6 mph 0.00 in   Mostly Cloudy
7:30 PM 64.4 °F 62.6 °F 94% 29.64 in 8.0 mi South 9.2 mph - 0.02 in   Mostly Cloudy
7:50 PM 62.6 °F 62.6 °F 100% 29.63 in 9.0 mi South 13.8 mph 21.9 mph 0.06 in   Mostly Cloudy
8:10 PM 62.6 °F 62.6 °F 100% 29.63 in 10.0 mi SSW 17.3 mph 24.2 mph 0.00 in   Mostly Cloudy
8:30 PM 62.6 °F 62.6 °F 100% 29.63 in 10.0 mi South 12.7 mph - 0.00 in   Scattered Clouds
8:50 PM 62.6 °F 60.8 °F 94% 29.63 in 10.0 mi South 12.7 mph 20.7 mph 0.00 in   Partly Cloudy
9:10 PM 62.6 °F 60.8 °F 94% 29.63 in 10.0 mi South 13.8 mph 19.6 mph 0.00 in   Clear
9:30 PM 62.6 °F 59.0 °F 88% 29.64 in 10.0 mi South 15.0 mph 19.6 mph 0.00 in   Clear
9:50 PM 62.6 °F 59.0 °F 88% 29.64 in 10.0 mi South 17.3 mph 21.9 mph 0.00 in   Scattered Clouds
10:10 PM 62.6 °F 59.0 °F 88% 29.65 in 7.0 mi SSW 21.9 mph 36.8 mph 0.00 in   Mostly Cloudy
10:30 PM 60.8 °F 57.2 °F 88% 29.66 in 10.0 mi SW 19.6 mph 34.5 mph 0.00 in   Scattered Clouds
10:50 PM 60.8 °F 55.4 °F 82% 29.68 in 10.0 mi SW 19.6 mph 24.2 mph 0.00 in   Scattered Clouds
11:10 PM 59.0 °F 55.4 °F 88% 29.68 in 10.0 mi WSW 20.7 mph 25.3 mph 0.00 in   Overcast
11:30 PM 57.2 °F 53.6 °F 88% 29.70 in 10.0 mi WSW 17.3 mph 24.2 mph 0.00 in   Mostly Cloudy
11:50 PM 55.4 °F 53.6 °F 94% 29.71 in 10.0 mi WSW 20.7 mph 24.2 mph 0.00 in   Mostly Cloudy